[[{"header":{"parameterUnit":"m.s-1","parameterCategory":1,"la1":30.2991,"la2":30.254,"lo1":-89.0895,"lo2":-89.0444,"dy":0.0017,"dx":0.0017,"nx":28,"ny":28,"refTime":"2023-11-17T09:00:00:Z","depth":0,"parameterNumber":2,"parameterNumberName":"U-component_of_WINDS"},"data":[0,0,0,0,0,0,0,0,0,0,0,0,0,0,0,0,0,0,0,0,0,0,0,0,0,0,0,0,0,0,0,0,0,0,0,0,0,0,0,0,0,0,0,0,0,0,0,0,0,0,0,0,0,0,0,0,0,0,0.1927,0.1926,0,0.1856,0.1856,0.1855,0.1827,0.1828,0.1828,0.1828,0.1753,0.1751,0.1749,0,0,0,0,0,0,0,0,0,0,0,0,0,0.2037,0.2035,0.1927,0.1926,0.1925,0.1857,0.1856,0.1855,0.1827,0.1828,0.1828,0.1828,0.1754,0.1752,0.1749,0,0,0,0,0,0,0,0,0,0,0,0,0,0.198,0.2034,0.1927,0.1904,0.1901,0.1857,0.1855,0.1854,0.1827,0.1828,0.1828,0.1828,0.1755,0.1752,0.1749,0.1722,0,0,0.1739,0.1737,0,0,0,0,0,0,0,0,0.1983,0.1976,0.1908,0.1905,0.1902,0.1851,0.1867,0.181,0.1827,0.1855,0.1828,0.1828,0.1786,0.178,0.1766,0.1719,0.1716,0.1738,0.1736,0.1735,0.1734,0,0,0,0,0,0,0,0.1987,0.1979,0.1899,0.1907,0.1903,0.1896,0.1888,0.1856,0.1819,0.1853,0.1851,0.1843,0.1784,0.1769,0.1764,0.1714,0.1738,0.1736,0.1734,0.1732,0.1642,0.1641,0,0,0,0,0,0,0.1995,0.1982,0.1901,0.1897,0.1944,0.1894,0.1885,0.1867,0.182,0.1813,0.1843,0.1842,0.1774,0.1768,0.1761,0.1727,0.1735,0.1732,0.173,0.1642,0.1642,0.1641,0,0,0,0,0,0,0.1998,0.1988,0.1904,0.1939,0.1928,0.1891,0.1871,0.1865,0.1851,0.1812,0.1805,0.1834,0.1774,0.1766,0.1732,0.1724,0.173,0.1727,0.1643,0.1642,0.1642,0.1658,0,0,0,0,0,0,0.2001,0.1989,0.1979,0.1939,0.1926,0.1877,0.1871,0.1864,0.1845,0.1843,0.1802,0.1796,0.1774,0.1737,0.1729,0.1719,0.1725,0.1643,0.1643,0.1642,0.1658,0.1658,0.1658,0,0,0,0,0,0.2005,0.1986,0.1979,0.1969,0.1913,0.1877,0.1869,0.1845,0.1845,0.1834,0.1809,0.1797,0.1726,0.1734,0.1724,0.1714,0.1644,0.1643,0.1642,0.1658,0.1658,0.1658,0,0,0,0,0,0,0.2026,0.1981,0.1972,0.194,0.1912,0.1872,0.1858,0.1846,0.1817,0.1817,0.1788,0.1778,0.1747,0.1727,0.1737,0.1686,0.1684,0.1681,0.17,0.1699,0.1699,0.1704,0.1722,0,0,0,0,0,0.2027,0.2002,0.1963,0.1939,0.1926,0.1894,0.1878,0.1862,0.1832,0.182,0.1792,0.1763,0.1734,0.1716,0.1687,0.1655,0.1646,0.1643,0.1643,0.1643,0.1641,0.1622,0.162,0.1638,0.1638,0.1638,0,0,0.2028,0.2001,0.1986,0.1942,0.1919,0.1893,0.1885,0.1858,0.1838,0.1815,0.1782,0.1761,0.1727,0.1694,0.1678,0.1676,0.1634,0.1642,0.1643,0.164,0.1621,0.1619,0.1618,0.1637,0.1638,0.1638,0,0,0.2018,0.1995,0.1971,0.1949,0.1914,0.1893,0.1888,0.1849,0.1835,0.1801,0.1784,0.176,0.1711,0.1687,0.1668,0.1649,0.1637,0.1641,0.164,0.1622,0.1621,0.1619,0.1612,0.161,0.1639,0.1639,0.1639,0,0.2023,0.1985,0.1961,0.1935,0.1916,0.1895,0.1871,0.185,0.1807,0.1794,0.1793,0.1731,0.1707,0.1668,0.1663,0.1649,0.1641,0.1645,0.1623,0.1621,0.162,0.1612,0.161,0.1639,0.1639,0.1639,0.1639,0,0.1993,0.1966,0.1952,0.1912,0.1891,0.1867,0.1838,0.182,0.1806,0.1786,0.1751,0.1721,0.1686,0.1676,0.1662,0.1635,0.1635,0.1629,0.1626,0.1619,0.1611,0.1608,0.164,0.164,0.164,0.164,0,0,0.1993,0.1941,0.1936,0.1917,0.1878,0.1856,0.1831,0.1797,0.1782,0.1753,0.173,0.169,0.1684,0.1663,0.1646,0.163,0.1616,0.1626,0.1625,0.1625,0.1584,0.1588,0.1586,0.1608,0.1608,0.1607,0.1587,0,0.1976,0.193,0.1908,0.187,0.1845,0.1825,0.1803,0.1776,0.1756,0.1731,0.1709,0.168,0.1675,0.1662,0.1646,0.1622,0.1608,0.1623,0.1586,0.1585,0.1594,0.1582,0.1586,0.1568,0.1584,0.1583,0.1583,0,0.195,0.1923,0.1883,0.1847,0.1835,0.1816,0.1783,0.176,0.1729,0.1715,0.1692,0.1676,0.1647,0.1648,0.1608,0.1619,0.1602,0.1588,0.1587,0.1581,0.1583,0.1575,0.1562,0.1559,0.1578,0.1579,0.1579,0,0.1953,0.1906,0.1876,0.1861,0.1818,0.1805,0.1786,0.1755,0.1737,0.1708,0.1695,0.1664,0.1646,0.1622,0.1597,0.16,0.1559,0.1558,0.1546,0.1547,0.1537,0.1538,0.152,0.1529,0.1529,0.1529,0.1529,0,0.1936,0.1913,0.1877,0.1858,0.1831,0.1806,0.178,0.1759,0.1733,0.1709,0.1691,0.1669,0.1638,0.1613,0.1594,0.1563,0.1555,0.1543,0.1538,0.1544,0.1545,0.1532,0.1532,0.1528,0.1528,0.1528,0.1529,0,0.1934,0.1909,0.1875,0.1838,0.1828,0.181,0.1777,0.1758,0.1738,0.1709,0.17,0.1668,0.1637,0.1611,0.157,0.1557,0.1524,0.1519,0.1535,0.1532,0.1522,0.1523,0.1494,0.1488,0.1502,0.1502,0.1502,0,0.1925,0.1906,0.1867,0.185,0.1832,0.1806,0.1787,0.1761,0.1742,0.1706,0.1691,0.1659,0.1632,0.1583,0.1555,0.1524,0.1517,0.1509,0.1512,0.1519,0.1516,0.1517,0.1514,0.1508,0.1508,0.1508,0.1508,0,0.191,0.1899,0.1872,0.1842,0.182,0.1794,0.1768,0.1755,0.1725,0.1704,0.1673,0.1652,0.1611,0.1579,0.1544,0.1524,0.1511,0.1508,0.1503,0.1509,0.1519,0.1512,0.1534,0.1508,0.1508,0.1508,0.1508,0.1508,0.1903,0.1886,0.1855,0.1826,0.1804,0.1781,0.1761,0.1738,0.1712,0.1677,0.1663,0.1631,0.16,0.1553,0.1533,0.1507,0.1505,0.1498,0.1497,0.1495,0.1496,0.1524,0.1501,0.1501,0.1501,0.1501,0.15,0,0.1887,0.1867,0.184,0.1805,0.1782,0.1773,0.1743,0.1725,0.1697,0.167,0.1644,0.1607,0.1576,0.1547,0.1514,0.1499,0.1492,0.1491,0.1491,0.1487,0.15,0.1507,0.1497,0.1497,0.1497,0.1497,0.1497,0.1497,0.1876,0.1845,0.1831,0.1789,0.1769,0.1737,0.1721,0.1699,0.1677,0.1638,0.1612,0.1594,0.1565,0.1531,0.1502,0.1494,0.1482,0.1483,0.1473,0.1485,0.1486,0.1487,0.1493,0.1481,0.1481,0.1462,0.1462,0.1462]},{"header":{"parameterUnit":"m.s-1","parameterCategory":1,"la1":30.2991,"la2":30.254,"lo1":-89.0895,"lo2":-89.0444,"dy":0.0017,"dx":0.0017,"nx":28,"ny":28,"refTime":"2023-11-17T09:00:00:Z","depth":0,"parameterNumber":3,"parameterNumberName":"V-component_of_WINDS"},"data":[0,0,0,0,0,0,0,0,0,0,0,0,0,0,0,0,0,0,0,0,0,0,0,0,0,0,0,0,0,0,0,0,0,0,0,0,0,0,0,0,0,0,0,0,0,0,0,0,0,0,0,0,0,0,0,0,0,0,-4.4842,-4.4843,0,-4.4898,-4.4899,-4.4899,-4.4827,-4.4825,-4.4822,-4.482,-4.4874,-4.4878,-4.4882,0,0,0,0,0,0,0,0,0,0,0,0,0,-4.467,-4.4674,-4.4842,-4.4843,-4.4843,-4.4898,-4.4899,-4.49,-4.4828,-4.4825,-4.4822,-4.4819,-4.4873,-4.4878,-4.4882,0,0,0,0,0,0,0,0,0,0,0,0,0,-4.4738,-4.4675,-4.4842,-4.4814,-4.4812,-4.4898,-4.4899,-4.49,-4.4829,-4.4825,-4.4821,-4.4817,-4.4872,-4.4877,-4.4883,-4.4997,0,0,-4.4901,-4.4903,0,0,0,0,0,0,0,0,-4.4734,-4.4744,-4.4818,-4.4816,-4.4814,-4.4852,-4.4858,-4.4932,-4.483,-4.4822,-4.482,-4.4815,-4.487,-4.4876,-4.4895,-4.5,-4.5002,-4.4901,-4.4905,-4.4907,-4.4909,0,0,0,0,0,0,0,-4.4729,-4.4741,-4.4864,-4.4819,-4.4817,-4.4798,-4.4804,-4.4872,-4.4867,-4.4823,-4.4818,-4.4825,-4.4868,-4.4889,-4.4895,-4.5003,-4.4901,-4.4906,-4.491,-4.4912,-4.5206,-4.521,0,0,0,0,0,0,-4.4728,-4.4738,-4.4862,-4.4866,-4.4764,-4.4805,-4.481,-4.4844,-4.4866,-4.4866,-4.4829,-4.4822,-4.4881,-4.4889,-4.4897,-4.5034,-4.4907,-4.4913,-4.4916,-4.5202,-4.5207,-4.5212,0,0,0,0,0,0,-4.4725,-4.474,-4.486,-4.48,-4.4814,-4.4812,-4.485,-4.4847,-4.4868,-4.4871,-4.4869,-4.4851,-4.4878,-4.4889,-4.4973,-4.5034,-4.4915,-4.4921,-4.5197,-4.5203,-4.5209,-4.5307,0,0,0,0,0,0,-4.472,-4.4739,-4.4783,-4.4802,-4.4818,-4.4937,-4.4853,-4.4851,-4.4878,-4.487,-4.4892,-4.4891,-4.4876,-4.4965,-4.4979,-4.504,-4.4925,-4.5191,-4.52,-4.5207,-4.5298,-4.5316,-4.5331,0,0,0,0,0,-4.4714,-4.4808,-4.4786,-4.4801,-4.4873,-4.494,-4.4949,-4.493,-4.4884,-4.4928,-4.493,-4.4891,-4.5025,-4.4974,-4.499,-4.5053,-4.5187,-4.5197,-4.5207,-4.5291,-4.5312,-4.5331,0,0,0,0,0,0,-4.4795,-4.4809,-4.4786,-4.4888,-4.4914,-4.4928,-4.4983,-4.4953,-4.4992,-4.4983,-4.4957,-4.4962,-4.5053,-4.5061,-4.5004,-4.5166,-4.5098,-4.5112,-4.5157,-4.5178,-4.5194,-4.519,-4.493,0,0,0,0,0,-4.4825,-4.4879,-4.4888,-4.4977,-4.4992,-4.4985,-4.5014,-4.4997,-4.5022,-4.5033,-4.5041,-4.5066,-4.5114,-4.5146,-4.519,-4.5299,-4.5303,-4.535,-4.5366,-4.538,-4.5392,-4.5451,-4.5472,-4.5244,-4.5243,-4.5243,0,0,-4.4886,-4.4901,-4.4937,-4.4994,-4.5012,-4.5069,-4.4995,-4.5057,-4.5099,-4.5042,-4.5123,-4.513,-4.5156,-4.5254,-4.5297,-4.5263,-4.5456,-4.5392,-4.5403,-4.5408,-4.5463,-4.5485,-4.5504,-4.525,-4.5249,-4.5248,0,0,-4.5028,-4.5044,-4.5121,-4.5141,-4.517,-4.5165,-4.5184,-4.5203,-4.5206,-4.5287,-4.5246,-4.5294,-4.5377,-4.5398,-4.5419,-4.557,-4.5536,-4.5585,-4.5671,-4.5729,-4.5747,-4.5763,-4.5818,-4.5838,-4.5597,-4.5597,-4.5597,0,-4.5101,-4.5185,-4.5164,-4.523,-4.5257,-4.5209,-4.5287,-4.5306,-4.5348,-4.5367,-4.5329,-4.5433,-4.5447,-4.555,-4.5587,-4.5605,-4.5626,-4.5583,-4.5746,-4.5762,-4.5777,-4.5829,-4.5849,-4.5603,-4.5602,-4.5602,-4.5601,0,-4.5274,-4.5333,-4.5391,-4.5435,-4.5467,-4.5539,-4.5528,-4.5564,-4.5545,-4.5544,-4.5628,-4.5643,-4.569,-4.5713,-4.5694,-4.5813,-4.5792,-4.5751,-4.5683,-4.5805,-4.5853,-4.5873,-4.5611,-4.5609,-4.5608,-4.5606,0,0,-4.5468,-4.5499,-4.5521,-4.554,-4.5569,-4.5614,-4.5683,-4.573,-4.5762,-4.5792,-4.585,-4.5922,-4.5884,-4.5909,-4.5892,-4.5942,-4.6062,-4.5895,-4.5895,-4.5927,-4.6196,-4.6228,-4.6251,-4.604,-4.6043,-4.6046,-4.6194,0,-4.5611,-4.5732,-4.5716,-4.5832,-4.5887,-4.5842,-4.5903,-4.5927,-4.5928,-4.5974,-4.5974,-4.6026,-4.5972,-4.5987,-4.6035,-4.6038,-4.6116,-4.6027,-4.6093,-4.6096,-4.609,-4.6276,-4.631,-4.6449,-4.6213,-4.6216,-4.6218,0,-4.5793,-4.5832,-4.5955,-4.5976,-4.5998,-4.6053,-4.6096,-4.614,-4.6166,-4.6164,-4.6192,-4.6166,-4.6235,-4.6166,-4.626,-4.62,-4.6226,-4.6231,-4.6236,-4.6243,-4.6165,-4.6289,-4.6492,-4.6514,-4.6248,-4.6245,-4.6243,0,-4.5924,-4.6007,-4.6091,-4.6109,-4.6135,-4.6175,-4.6188,-4.621,-4.624,-4.6277,-4.6296,-4.634,-4.6364,-4.6399,-4.6385,-4.6336,-4.6483,-4.6412,-4.6483,-4.6484,-4.6517,-4.6515,-4.6729,-4.6532,-4.6532,-4.6531,-4.6531,0,-4.6086,-4.6163,-4.615,-4.6203,-4.6288,-4.6267,-4.6352,-4.6359,-4.6379,-4.6432,-4.6395,-4.6444,-4.6423,-4.6471,-4.6461,-4.6542,-4.6553,-4.6552,-4.6549,-4.6557,-4.6557,-4.6574,-4.6565,-4.6537,-4.6536,-4.6535,-4.6534,0,-4.6247,-4.6241,-4.6331,-4.6349,-4.6356,-4.6418,-4.6433,-4.6482,-4.648,-4.6547,-4.6561,-4.6559,-4.6614,-4.6604,-4.6664,-4.6657,-4.6758,-4.6742,-4.675,-4.6747,-4.6819,-4.6813,-4.7052,-4.7083,-4.6865,-4.6867,-4.6869,0,-4.6351,-4.641,-4.6435,-4.6468,-4.6485,-4.6538,-4.6569,-4.6551,-4.6585,-4.662,-4.6664,-4.6716,-4.6757,-4.6846,-4.685,-4.6896,-4.6881,-4.6962,-4.6888,-4.6894,-4.6884,-4.6881,-4.6887,-4.6977,-4.6979,-4.6981,-4.6983,0,-4.6538,-4.6532,-4.6579,-4.6625,-4.6664,-4.6699,-4.673,-4.6759,-4.6744,-4.6783,-4.684,-4.6872,-4.6934,-4.6986,-4.7029,-4.7041,-4.701,-4.7006,-4.7025,-4.7034,-4.7037,-4.7038,-4.6792,-4.7001,-4.6999,-4.6998,-4.6997,-4.6996,-4.6674,-4.6725,-4.6751,-4.6804,-4.6826,-4.6857,-4.6904,-4.6909,-4.6957,-4.7007,-4.6993,-4.7058,-4.7082,-4.7137,-4.7155,-4.7204,-4.7174,-4.7201,-4.7209,-4.7216,-4.7225,-4.7028,-4.7212,-4.7211,-4.7211,-4.721,-4.721,0,-4.6859,-4.6874,-4.6924,-4.697,-4.7012,-4.698,-4.7013,-4.705,-4.7108,-4.7135,-4.7176,-4.7241,-4.7292,-4.73,-4.7348,-4.7386,-4.7373,-4.7399,-4.7397,-4.7401,-4.7249,-4.7228,-4.7409,-4.7409,-4.7409,-4.7409,-4.7409,-4.7409,-4.6961,-4.7045,-4.7043,-4.7138,-4.7152,-4.7216,-4.7238,-4.7266,-4.7288,-4.7363,-4.7406,-4.741,-4.743,-4.7479,-4.7524,-4.7525,-4.7544,-4.7577,-4.7572,-4.7431,-4.7411,-4.7392,-4.7373,-4.7581,-4.7581,-4.772,-4.7721,-4.7722]}]]